METEOR 2-7 DEB

Satellite information

Favourite Embed

Satellite Type and Status

DEBRISIN ORBIT

Key statistics

Satellite METEOR 2-7 DEB at a glance.

Uptime

16284

Days in orbit

Revolutions

≈ 14.5

Per day

Orbit

LEO

Low Earth Orbit

Inclination

81.3

Latest

Satellite identification and parameters

Extended collection of information and parameters for METEOR 2-7 DEB.

Object identification

Identified? True

Debris? True

Object name: METEOR 2-7 DEB

International designator: 1981-043E

Object number (NORAD): 28388

Object ID (CCSDS): 28388

Country: COMMONWEALTH OF INDEPENDENT STATES (CIS)

Current information (Y/N): Y

RCS size: SMALL

Orbital parameters

Period: 99.099 minutes

Inclination: 81.2677 deg

SMA: 7093.694 km

Apoapsis: 730.007 km

Periapsis: 701.11 km

RAAN: 126.9065 deg

Eccentricy: 0.00203686

Argument of periapsis: 241.6729 deg

Mean anomaly: 118.2412 deg

Mean motion: 14.53095372 rev/day

Mean motion (dot): 0.0002215 rev/day2

B* drag term: 0.005327028 1/REarth

Two-line elements (TLE)

Creation date: Dec. 11, 2025, 7:14 p.m.

Reference frame: TEME

Reference center: EARTH

Epoch: Dec. 11, 2025, 9:19 a.m. UTC

TLE line 0: 0 METEOR 2-7 DEB

TLE line 1: 1 28388U 81043E 25345.38867421 .00022150 00000-0 53270-2 0 9992

TLE line 2: 2 28388 81.2677 126.9065 0020369 241.6729 118.2412 14.53095372620772

Live tracking on map

Real-time ground track for satellite METEOR 2-7 DEB.

In-orbit conjunctions

A list of the most updated potential collisions computed for object METEOR 2-7 DEB.

Target Orbit TCA Probability of collision Miss distance Type
FENGYUN 1C DEB SSO 2024-10-20 21:47:58 0.0001231426 25.0 (m) DEBRIS
COSMOS 1954 LEO 2024-09-21 16:08:03 0.0001028231 125.0 (m) PAYLOAD

Associated space launch

Second generation soviet meteorological satellite

METEOR 2-7 DEB was lifted into orbit during the mission ‘Vostok 8A92M | Meteor-2 7’, on board a Vostok 8A92M space rocket.

The launch took place on May 14, 1981, 9:45 p.m. from 43/3 (43L).

For more information about the launch, click the button.

Launch to space Vostok 8A92M | Meteor-2 7
Vostok 8A92M | Meteor-2 7

Agency: N/A

Status: Launch Successful

Launch date: May 14, 1981, 9:45 p.m. UTC

Rocket: Vostok 8A92M

Launch pad: 43/3 (43L)

Location: Plesetsk Cosmodrome, Russian Federation

...

Latest news about this satellite

There are no fresh news available about this satellite. Check back as we update our databases every day.


Newsletter sign-up

Weekly statistics, charts and insights to help you stay on top of the space industry.